TVF30QP LFPO-EKCH

Flight info

Callsign TVF30QP
Flight time 1h 31m
Altitude 35000
Route RANUX DCT VALEK/N0454F370 DCT LUTAX UM163 DIK N853 ARCKY DCT IBESA DCT OSNAD DCT HAM P605 GESKA Z711 MONAK
Aircraft B738/M-SDE2E3FGHIRWXY/LB1

Departure

Time 2026-04-23 11:39
Airport Paris-Orly Airport (LFPO)

Arrival

Time 2026-04-23 13:11
Airport Copenhagen Kastrup Airport (EKCH)
Time Latitude Longitude Altitude Speed Heading
2026-04-23 10:47 48.72779 2.35836 296 ft 0 kts 141°
2026-04-23 11:32 48.72795 2.35813 291 ft 4 kts 110°
2026-04-23 11:32 48.72796 2.35780 291 ft 2 kts 74°
2026-04-23 11:32 48.72790 2.35744 291 ft 4 kts 73°
2026-04-23 11:32 48.72782 2.35705 291 ft 4 kts 75°
2026-04-23 11:33 48.72776 2.35665 290 ft 4 kts 86°
2026-04-23 11:33 48.72779 2.35629 289 ft 4 kts 110°
2026-04-23 11:33 48.72792 2.35595 291 ft 4 kts 141°
2026-04-23 11:33 48.72815 2.35576 291 ft 4 kts 162°
2026-04-23 11:34 48.72826 2.35571 289 ft 0 kts 164°
2026-04-23 11:36 48.72824 2.35571 289 ft 1 kts 164°
2026-04-23 11:36 48.72794 2.35585 291 ft 13 kts 163°
2026-04-23 11:36 48.72651 2.35645 287 ft 26 kts 165°
2026-04-23 11:36 48.72499 2.35701 285 ft 17 kts 181°
2026-04-23 11:37 48.72439 2.35562 287 ft 17 kts 250°
2026-04-23 11:37 48.72380 2.35428 287 ft 16 kts 185°
2026-04-23 11:37 48.72307 2.35540 287 ft 16 kts 133°
2026-04-23 11:37 48.72213 2.35607 285 ft 15 kts 169°
2026-04-23 11:38 48.72115 2.35647 285 ft 14 kts 161°
2026-04-23 11:38 48.72038 2.35734 286 ft 14 kts 130°
2026-04-23 11:38 48.71992 2.35856 288 ft 13 kts 116°
2026-04-23 11:38 48.71965 2.35983 285 ft 13 kts 80°
2026-04-23 11:39 48.71997 2.36161 286 ft 40 kts 74°
2026-04-23 11:39 48.72153 2.37004 286 ft 122 kts 75°
2026-04-23 11:39 48.72405 2.38417 716 ft 153 kts 76°
2026-04-23 11:39 48.72695 2.40040 1535 ft 163 kts 75°
2026-04-23 11:40 48.73013 2.41744 2345 ft 180 kts 74°
2026-04-23 11:40 48.73369 2.43718 2665 ft 210 kts 75°
2026-04-23 11:40 48.73790 2.45936 3050 ft 229 kts 74°
2026-04-23 11:40 48.74151 2.48365 3675 ft 242 kts 86°
2026-04-23 11:41 48.74217 2.50923 4664 ft 244 kts 89°
2026-04-23 11:41 48.74274 2.53502 5661 ft 247 kts 89°
2026-04-23 11:41 48.74360 2.56124 6581 ft 252 kts 86°
2026-04-23 11:41 48.74565 2.58788 7521 ft 256 kts 84°
2026-04-23 11:42 48.74794 2.61477 8483 ft 260 kts 83°
2026-04-23 11:42 48.75025 2.64231 9481 ft 265 kts 83°
2026-04-23 11:42 48.75253 2.67035 10444 ft 271 kts 84°
2026-04-23 11:42 48.75486 2.69936 11082 ft 290 kts 84°
2026-04-23 11:43 48.75733 2.73126 11306 ft 320 kts 84°
2026-04-23 11:43 48.76001 2.76621 11541 ft 347 kts 84°
2026-04-23 11:43 48.76285 2.80326 12139 ft 358 kts 84°
2026-04-23 11:43 48.76574 2.84111 12951 ft 364 kts 84°
2026-04-23 11:44 48.76867 2.87956 13882 ft 366 kts 84°
2026-04-23 11:44 48.77158 2.91786 14954 ft 365 kts 84°
2026-04-23 11:44 48.77448 2.95637 15800 ft 371 kts 84°
2026-04-23 11:44 48.77769 2.99557 16516 ft 380 kts 83°
2026-04-23 11:45 48.78216 3.03532 17314 ft 386 kts 81°
2026-04-23 11:45 48.78553 3.07605 17995 ft 392 kts 88°
2026-04-23 11:45 48.78930 3.11737 18790 ft 398 kts 81°
2026-04-23 11:45 48.79542 3.15851 19536 ft 402 kts 79°
2026-04-23 11:46 48.80164 3.19988 20276 ft 404 kts 80°
2026-04-23 11:46 48.80730 3.24121 20980 ft 407 kts 82°
2026-04-23 11:46 48.81254 3.28352 21666 ft 410 kts 83°
2026-04-23 11:46 48.81754 3.32624 22337 ft 413 kts 83°
2026-04-23 11:47 48.82283 3.36928 22976 ft 418 kts 79°
2026-04-23 11:47 48.83379 3.41066 23604 ft 427 kts 67°
2026-04-23 11:47 48.84741 3.45089 24180 ft 430 kts 67°
2026-04-23 11:47 48.86105 3.49157 24679 ft 433 kts 67°
2026-04-23 11:48 48.87461 3.53252 25196 ft 435 kts 67°
2026-04-23 11:48 48.88813 3.57376 25700 ft 437 kts 68°
2026-04-23 11:48 48.90160 3.61527 26159 ft 440 kts 68°
2026-04-23 11:48 48.91513 3.65718 26608 ft 443 kts 68°
2026-04-23 11:49 48.92869 3.69931 27048 ft 445 kts 68°
2026-04-23 11:49 48.94230 3.74170 27487 ft 448 kts 68°
2026-04-23 11:49 48.95600 3.78445 27890 ft 450 kts 68°
2026-04-23 11:49 48.96973 3.82733 28314 ft 452 kts 68°
2026-04-23 11:50 48.98348 3.87033 28862 ft 451 kts 69°
2026-04-23 11:50 48.99714 3.91307 29560 ft 447 kts 69°
2026-04-23 11:50 49.01066 3.95544 30275 ft 443 kts 69°
2026-04-23 11:50 49.02408 3.99759 30780 ft 442 kts 69°
2026-04-23 11:51 49.03747 4.03979 31198 ft 443 kts 69°
2026-04-23 11:51 49.05086 4.08206 31628 ft 443 kts 69°
2026-04-23 11:51 49.06423 4.12433 32120 ft 441 kts 69°
2026-04-23 11:51 49.07752 4.16639 32629 ft 440 kts 69°
2026-04-23 11:52 49.09079 4.20848 33089 ft 439 kts 69°
2026-04-23 11:52 49.10400 4.25044 33537 ft 439 kts 69°
2026-04-23 11:52 49.11720 4.29242 34002 ft 438 kts 69°
2026-04-23 11:52 49.13034 4.33427 34462 ft 437 kts 69°
2026-04-23 11:53 49.14340 4.37619 34819 ft 436 kts 70°
2026-04-23 11:53 49.15557 4.41867 35131 ft 436 kts 71°
2026-04-23 11:53 49.16706 4.46128 35376 ft 436 kts 72°
2026-04-23 11:54 49.18976 4.54737 35362 ft 435 kts 72°
2026-04-23 11:54 49.21221 4.63184 35352 ft 431 kts 72°
2026-04-23 11:55 49.23493 4.71670 35356 ft 431 kts 72°
2026-04-23 11:55 49.25766 4.80159 35359 ft 431 kts 72°
2026-04-23 11:56 49.28036 4.88664 35360 ft 432 kts 72°
2026-04-23 11:56 49.30299 4.97173 35364 ft 431 kts 72°
2026-04-23 11:57 49.32555 5.05690 35359 ft 431 kts 72°
2026-04-23 11:57 49.34804 5.14209 35361 ft 431 kts 72°
2026-04-23 11:58 49.37046 5.22738 35369 ft 431 kts 72°
2026-04-23 11:58 49.39280 5.31265 35362 ft 431 kts 72°
2026-04-23 11:59 49.41507 5.39800 35365 ft 430 kts 72°
2026-04-23 11:59 49.43725 5.48328 35373 ft 429 kts 72°
2026-04-23 12:00 49.45932 5.56850 35379 ft 429 kts 72°
2026-04-23 12:00 49.48128 5.65354 35382 ft 429 kts 72°
2026-04-23 12:01 49.50433 5.73748 35361 ft 433 kts 64°
2026-04-23 12:01 49.54336 5.80920 35364 ft 445 kts 45°
2026-04-23 12:02 49.59502 5.86314 35366 ft 450 kts 37°
2026-04-23 12:02 49.64784 5.91467 35375 ft 448 kts 37°
2026-04-23 12:03 49.70016 5.96688 35372 ft 447 kts 38°
2026-04-23 12:03 49.75219 6.01951 35375 ft 446 kts 38°
2026-04-23 12:04 49.80412 6.07217 35383 ft 446 kts 38°
2026-04-23 12:04 49.85902 6.11766 35384 ft 456 kts 23°
2026-04-23 12:05 49.92228 6.13289 35388 ft 468 kts
2026-04-23 12:05 49.98751 6.13205 35385 ft 470 kts
2026-04-23 12:06 50.05259 6.13105 35368 ft 470 kts
2026-04-23 12:06 50.15078 6.13128 35387 ft 471 kts
2026-04-23 12:07 50.21635 6.13163 35384 ft 471 kts
2026-04-23 12:07 50.28145 6.13727 35382 ft 464 kts 17°
2026-04-23 12:08 50.34068 6.17265 35379 ft 451 kts 36°
2026-04-23 12:08 50.39264 6.22701 35380 ft 449 kts 39°
2026-04-23 12:09 50.44447 6.28178 35388 ft 450 kts 38°
2026-04-23 12:09 50.49639 6.33551 35369 ft 450 kts 38°
2026-04-23 12:10 50.54798 6.39104 35387 ft 449 kts 39°
2026-04-23 12:10 50.59770 6.44605 35390 ft 449 kts 40°
2026-04-23 12:11 50.64886 6.50272 35398 ft 449 kts 40°
2026-04-23 12:11 50.70002 6.55929 35401 ft 449 kts 39°
2026-04-23 12:12 50.75118 6.61590 35399 ft 449 kts 39°
2026-04-23 12:12 50.80229 6.67258 35401 ft 448 kts 39°
2026-04-23 12:13 50.85324 6.72923 35400 ft 447 kts 39°
2026-04-23 12:13 50.90403 6.78589 35401 ft 447 kts 39°
2026-04-23 12:14 50.95474 6.84260 35397 ft 446 kts 39°
2026-04-23 12:14 51.00545 6.89946 35399 ft 446 kts 39°
2026-04-23 12:15 51.05590 6.95620 35398 ft 446 kts 39°
2026-04-23 12:15 51.10611 7.01281 35400 ft 446 kts 39°
2026-04-23 12:16 51.15672 7.07004 35388 ft 446 kts 39°
2026-04-23 12:16 51.20727 7.12736 35394 ft 446 kts 39°
2026-04-23 12:17 51.25785 7.18486 35392 ft 446 kts 39°
2026-04-23 12:17 51.30832 7.24239 35402 ft 446 kts 39°
2026-04-23 12:18 51.35873 7.30001 35373 ft 445 kts 39°
2026-04-23 12:18 51.40898 7.35761 35388 ft 444 kts 39°
2026-04-23 12:19 51.45920 7.41534 35393 ft 444 kts 39°
2026-04-23 12:19 51.50926 7.47304 35400 ft 443 kts 39°
2026-04-23 12:20 51.55932 7.53091 35405 ft 443 kts 39°
2026-04-23 12:20 51.60933 7.58888 35400 ft 443 kts 39°
2026-04-23 12:21 51.65932 7.64698 35400 ft 443 kts 39°
2026-04-23 12:21 51.70930 7.70524 35398 ft 443 kts 39°
2026-04-23 12:22 51.75894 7.76325 35398 ft 444 kts 39°
2026-04-23 12:22 51.80885 7.82175 35397 ft 443 kts 39°
2026-04-23 12:23 51.85867 7.88030 35391 ft 442 kts 39°
2026-04-23 12:23 51.90829 7.93878 35387 ft 441 kts 39°
2026-04-23 12:24 51.95777 7.99727 35396 ft 440 kts 39°
2026-04-23 12:24 52.00712 8.05576 35387 ft 439 kts 39°
2026-04-23 12:25 52.05637 8.11430 35386 ft 439 kts 39°
2026-04-23 12:25 52.10567 8.17308 35386 ft 439 kts 39°
2026-04-23 12:26 52.14661 8.22199 35383 ft 440 kts 39°
2026-04-23 12:26 52.19587 8.28099 35379 ft 440 kts 39°
2026-04-23 12:27 52.24492 8.34095 35370 ft 440 kts 40°
2026-04-23 12:27 52.29368 8.40164 35372 ft 441 kts 40°
2026-04-23 12:28 52.34242 8.46249 35374 ft 441 kts 40°
2026-04-23 12:28 52.39114 8.52332 35365 ft 440 kts 40°
2026-04-23 12:29 52.43976 8.58414 35364 ft 439 kts 40°
2026-04-23 12:29 52.48831 8.64503 35357 ft 439 kts 40°
2026-04-23 12:30 52.53671 8.70591 35363 ft 438 kts 40°
2026-04-23 12:30 52.58504 8.76688 35359 ft 438 kts 40°
2026-04-23 12:31 52.63332 8.82796 35351 ft 438 kts 40°
2026-04-23 12:31 52.68158 8.88920 35334 ft 438 kts 40°
2026-04-23 12:32 52.72951 8.95017 35345 ft 438 kts 40°
2026-04-23 12:32 52.77784 9.01185 35346 ft 439 kts 40°
2026-04-23 12:33 52.82616 9.07369 35345 ft 440 kts 40°
2026-04-23 12:33 52.87454 9.13579 35354 ft 440 kts 40°
2026-04-23 12:34 52.92291 9.19804 35337 ft 440 kts 39°
2026-04-23 12:34 52.97115 9.26031 35340 ft 440 kts 39°
2026-04-23 12:35 53.01938 9.32275 35339 ft 439 kts 39°
2026-04-23 12:35 53.06750 9.38524 35340 ft 439 kts 40°
2026-04-23 12:36 53.11555 9.44781 35333 ft 438 kts 40°
2026-04-23 12:36 53.16351 9.51044 35334 ft 438 kts 40°
2026-04-23 12:37 53.21140 9.57317 35331 ft 438 kts 40°
2026-04-23 12:37 53.25926 9.63605 35332 ft 438 kts 40°
2026-04-23 12:38 53.30711 9.69909 35329 ft 438 kts 40°
2026-04-23 12:38 53.35494 9.76229 35322 ft 438 kts 40°
2026-04-23 12:39 53.40269 9.82558 35327 ft 438 kts 40°
2026-04-23 12:39 53.45047 9.88910 35349 ft 438 kts 40°
2026-04-23 12:40 53.49823 9.95277 35349 ft 438 kts 40°
2026-04-23 12:40 53.54598 10.01662 35321 ft 438 kts 40°
2026-04-23 12:41 53.59366 10.08058 35317 ft 438 kts 40°
2026-04-23 12:41 53.64123 10.14456 35328 ft 438 kts 40°
2026-04-23 12:42 53.68861 10.20918 35315 ft 438 kts 43°
2026-04-23 12:42 53.73062 10.28235 35313 ft 437 kts 48°
2026-04-23 12:43 53.77147 10.35825 35296 ft 437 kts 48°
2026-04-23 12:43 53.81270 10.43390 35289 ft 437 kts 47°
2026-04-23 12:44 53.85424 10.50950 35315 ft 438 kts 47°
2026-04-23 12:44 53.89572 10.58510 35293 ft 439 kts 47°
2026-04-23 12:45 53.93740 10.66134 35290 ft 440 kts 47°
2026-04-23 12:45 53.97905 10.73728 35286 ft 440 kts 47°
2026-04-23 12:46 54.02074 10.81314 35273 ft 440 kts 46°
2026-04-23 12:46 54.06247 10.88939 35271 ft 439 kts 47°
2026-04-23 12:47 54.10405 10.96565 35269 ft 439 kts 47°
2026-04-23 12:47 54.14557 11.04213 35264 ft 439 kts 47°
2026-04-23 12:48 54.18700 11.11874 35257 ft 439 kts 47°
2026-04-23 12:48 54.20742 11.15657 35239 ft 423 kts 47°
2026-04-23 12:48 54.22680 11.19275 35234 ft 405 kts 47°
2026-04-23 12:49 54.24539 11.22766 35255 ft 389 kts 46°
2026-04-23 12:49 54.26332 11.26144 35237 ft 375 kts 46°
2026-04-23 12:49 54.28046 11.29374 35232 ft 361 kts 46°
2026-04-23 12:49 54.29708 11.32507 35233 ft 348 kts 46°
2026-04-23 12:50 54.32975 11.38667 35259 ft 358 kts 46°
2026-04-23 12:50 54.36388 11.45121 35255 ft 369 kts 46°
2026-04-23 12:51 54.39822 11.51609 35241 ft 366 kts 46°
2026-04-23 12:51 54.43183 11.57949 34823 ft 350 kts 46°
2026-04-23 12:52 54.44808 11.61023 34326 ft 345 kts 46°
2026-04-23 12:52 54.46417 11.64070 33664 ft 343 kts 46°
2026-04-23 12:52 54.48026 11.67115 32772 ft 347 kts 46°
2026-04-23 12:52 54.49686 11.70252 31482 ft 362 kts 46°
2026-04-23 12:53 54.51407 11.73508 30236 ft 373 kts 46°
2026-04-23 12:53 54.53151 11.76815 28835 ft 380 kts 46°
2026-04-23 12:53 54.54943 11.80220 27506 ft 384 kts 46°
2026-04-23 12:53 54.56749 11.83658 26254 ft 386 kts 46°
2026-04-23 12:54 54.58539 11.87068 25080 ft 386 kts 46°
2026-04-23 12:54 54.60339 11.90502 23964 ft 385 kts 46°
2026-04-23 12:54 54.62225 11.93752 22736 ft 381 kts 38°
2026-04-23 12:54 54.64346 11.96401 21530 ft 375 kts 32°
2026-04-23 12:55 54.66518 11.98874 20388 ft 370 kts 31°
2026-04-23 12:55 54.68650 12.01285 19662 ft 358 kts 31°
2026-04-23 12:55 54.70686 12.03602 19132 ft 344 kts 31°
2026-04-23 12:55 54.72670 12.05873 18673 ft 342 kts 31°
2026-04-23 12:56 54.74678 12.08180 18149 ft 352 kts 31°
2026-04-23 12:56 54.76786 12.10610 17597 ft 372 kts 31°
2026-04-23 12:56 54.78941 12.13106 17013 ft 371 kts 32°
2026-04-23 12:56 54.81060 12.15573 16487 ft 362 kts 32°
2026-04-23 12:57 54.83121 12.17977 15985 ft 353 kts 31°
2026-04-23 12:57 54.85135 12.20327 15491 ft 345 kts 31°
2026-04-23 12:57 54.87114 12.22638 15006 ft 342 kts 31°
2026-04-23 12:57 54.89079 12.24933 14530 ft 339 kts 31°
2026-04-23 12:58 54.91047 12.27233 14069 ft 345 kts 31°
2026-04-23 12:58 54.93070 12.29598 13508 ft 353 kts 31°
2026-04-23 12:58 54.95068 12.31942 12967 ft 349 kts 31°
2026-04-23 12:58 54.97062 12.34288 12435 ft 340 kts 31°
2026-04-23 12:59 54.99001 12.36570 11940 ft 332 kts 31°
2026-04-23 12:59 55.00897 12.38799 11464 ft 325 kts 30°
2026-04-23 12:59 55.02765 12.40981 11127 ft 320 kts 30°
2026-04-23 12:59 55.04587 12.43107 10997 ft 310 kts 30°
2026-04-23 13:00 55.06379 12.45197 10872 ft 311 kts 30°
2026-04-23 13:00 55.08171 12.47288 10739 ft 307 kts 30°
2026-04-23 13:00 55.09902 12.49316 10607 ft 293 kts 30°
2026-04-23 13:00 55.11553 12.51254 10483 ft 280 kts 29°
2026-04-23 13:01 55.13132 12.53108 10369 ft 268 kts 29°
2026-04-23 13:01 55.14648 12.54889 10265 ft 257 kts 29°
2026-04-23 13:01 55.16115 12.56581 10085 ft 248 kts 24°
2026-04-23 13:01 55.17716 12.57190 9841 ft 235 kts 350°
2026-04-23 13:02 55.19267 12.56218 9538 ft 241 kts 335°
2026-04-23 13:02 55.20810 12.54948 9177 ft 249 kts 335°
2026-04-23 13:02 55.22383 12.53650 8761 ft 249 kts 335°
2026-04-23 13:02 55.23957 12.52346 8357 ft 250 kts 335°
2026-04-23 13:03 55.25528 12.51039 7952 ft 250 kts 335°
2026-04-23 13:03 55.27106 12.49725 7554 ft 251 kts 335°
2026-04-23 13:03 55.28682 12.48412 7167 ft 251 kts 335°
2026-04-23 13:03 55.30265 12.47095 6781 ft 251 kts 335°
2026-04-23 13:04 55.31830 12.45794 6375 ft 251 kts 335°
2026-04-23 13:04 55.33391 12.44491 5934 ft 245 kts 335°
2026-04-23 13:04 55.34913 12.43215 5495 ft 240 kts 335°
2026-04-23 13:04 55.36414 12.41961 5041 ft 237 kts 335°
2026-04-23 13:05 55.37900 12.40751 4663 ft 230 kts 340°
2026-04-23 13:05 55.39443 12.40392 4412 ft 220 kts 358°
2026-04-23 13:05 55.40929 12.40457 4175 ft 211 kts 359°
2026-04-23 13:05 55.42366 12.40553 3937 ft 202 kts 360°
2026-04-23 13:06 55.45076 12.40736 3472 ft 188 kts 360°
2026-04-23 13:06 55.46361 12.41035 3307 ft 189 kts 19°
2026-04-23 13:06 55.47461 12.42427 3096 ft 200 kts 32°
2026-04-23 13:07 55.48571 12.43918 2825 ft 200 kts 32°
2026-04-23 13:07 55.49633 12.45475 2554 ft 197 kts 34°
2026-04-23 13:07 55.50669 12.47072 2285 ft 201 kts 36°
2026-04-23 13:07 55.51705 12.48687 2023 ft 193 kts 36°
2026-04-23 13:08 55.52679 12.50207 1753 ft 178 kts 35°
2026-04-23 13:08 55.53577 12.51599 1504 ft 165 kts 36°
2026-04-23 13:08 55.54399 12.52876 1303 ft 154 kts 36°
2026-04-23 13:08 55.55160 12.54059 1126 ft 141 kts 33°
2026-04-23 13:09 55.55889 12.55185 927 ft 139 kts 34°
2026-04-23 13:09 55.56618 12.56328 776 ft 143 kts 35°
2026-04-23 13:09 55.57382 12.57510 589 ft 141 kts 35°
2026-04-23 13:09 55.58112 12.58625 360 ft 139 kts 38°
2026-04-23 13:10 55.58838 12.59747 181 ft 138 kts 35°
2026-04-23 13:10 55.59557 12.60870 31 ft 133 kts 35°
2026-04-23 13:10 55.59984 12.61524 27 ft 108 kts 40°
2026-04-23 13:10 55.60436 12.62227 27 ft 68 kts 41°
2026-04-23 13:11 55.60838 12.62791 24 ft 41 kts 22°
2026-04-23 13:11 55.61100 12.62913 23 ft 37 kts 14°
2026-04-23 13:11 55.61224 12.63069 24 ft 32 kts 40°
2026-04-23 13:11 55.61389 12.63320 23 ft 31 kts 41°
2026-04-23 13:12 55.61547 12.63566 26 ft 30 kts 41°
2026-04-23 13:12 55.61694 12.63797 23 ft 28 kts 41°
2026-04-23 13:12 55.61834 12.64011 23 ft 26 kts 40°
2026-04-23 13:12 55.61985 12.64163 23 ft 24 kts 24°
2026-04-23 13:13 55.62129 12.64285 25 ft 23 kts 25°
2026-04-23 13:13 55.62258 12.64437 21 ft 23 kts 60°
2026-04-23 13:13 55.62317 12.64691 24 ft 22 kts 84°
2026-04-23 13:13 55.62244 12.64929 24 ft 23 kts 124°
2026-04-23 13:14 55.62199 12.65167 23 ft 20 kts 40°
2026-04-23 13:14 55.62336 12.65206 26 ft 20 kts 355°
2026-04-23 13:14 55.62442 12.65300 24 ft 19 kts 86°
2026-04-23 13:14 55.62444 12.65544 23 ft 20 kts 88°
2026-04-23 13:15 55.62447 12.65784 23 ft 13 kts 89°
2026-04-23 13:15 55.62487 12.65839 23 ft 9 kts
2026-04-23 13:15 55.62518 12.65837 23 ft 2 kts 359°
2026-04-23 13:15 55.62521 12.65837 23 ft 0 kts 359°